Date,TemperatureHighF,TemperatureAvgF,TemperatureLowF,DewpointHighF,DewpointAvgF,DewpointLowF,HumidityHigh,HumidityAvg,HumidityLow,PressureMaxIn,PressureMinIn,WindSpeedMaxMPH,WindSpeedAvgMPH,GustSpeedMaxMPH,PrecipitationSumIn
2014-1-1,30,23,19,20,13,3,88,66,42,0.00,40.00,0,-999,0,0.00
2014-1-2,40,29,23,12,8,1,45,40,29,0.00,40.00,0,-999,0,0.00
2014-1-3,39,31,26,20,15,12,77,52,34,0.00,40.00,0,-999,0,0.00
2014-1-4,25,11,6,19,6,-1,94,79,67,0.00,40.00,0,-999,0,0.00
2014-1-5,9,6,3,1,-2,-5,82,68,51,0.00,40.00,0,-999,0,0.00
2014-1-6,31,19,10,8,-9,-18,43,28,14,0.00,40.00,0,-999,0,0.00
2014-1-7,34,27,21,21,13,-1,94,59,24,0.00,40.00,0,-999,0,0.00
2014-1-8,26,22,20,23,20,14,97,90,74,0.00,40.00,0,-999,0,0.00
2014-1-9,22,17,11,21,11,-6,96,78,42,0.00,40.00,0,-999,0,0.00
2014-1-10,25,20,15,22,17,9,94,86,75,0.00,40.00,0,-999,0,0.00
2014-1-11,37,30,25,24,21,16,94,71,44,0.00,40.00,0,-999,0,0.00
2014-1-12,28,15,12,21,11,9,92,85,74,0.00,40.00,0,-999,0,0.00
2014-1-13,23,21,16,20,17,13,94,86,72,0.00,40.00,0,-999,0,0.00
2014-1-14,31,24,19,17,14,12,83,66,47,0.00,40.00,0,-999,0,0.00
2014-1-15,28,24,21,15,8,-3,76,53,25,0.00,40.00,0,-999,0,0.00
2014-1-16,35,30,24,5,0,-8,37,27,18,0.00,40.00,0,-999,0,0.00
2014-1-17,36,28,23,9,1,-9,44,31,17,0.00,40.00,0,-999,0,0.00
2014-1-18,39,31,26,7,2,-4,42,29,20,0.00,40.00,0,-999,0,0.00
2014-1-19,44,34,30,5,0,-5,26,22,17,0.00,40.00,0,-999,0,0.00
2014-1-20,37,32,28,5,-3,-29,32,23,5,0.00,40.00,0,-999,0,0.00
2014-1-21,43,33,28,3,-7,-31,27,18,4,0.00,40.00,0,-999,0,0.00
2014-1-22,33,29,26,8,0,-4,39,27,21,0.00,40.00,0,-999,0,0.00
2014-1-23,28,25,23,8,-3,-24,46,30,10,0.00,40.00,0,-999,0,0.00
2014-1-24,28,26,25,-25,-28,-31,9,7,6,0.00,40.00,0,-999,0,0.00
2014-1-25,42,32,27,3,-13,-30,31,14,5,0.00,40.00,0,-999,0,0.00
2014-1-26,35,27,23,10,0,-6,50,31,16,0.00,40.00,0,-999,0,0.00
2014-1-27,27,25,24,12,9,5,58,49,41,0.00,40.00,0,-999,0,0.00
2014-1-28,30,20,15,15,-1,-24,74,42,14,0.00,40.00,0,-999,0,0.00
2014-1-29,34,29,22,34,25,17,100,87,70,0.00,40.00,0,-999,0,0.00
2014-1-30,23,20,16,20,17,12,96,89,68,0.00,40.00,0,-999,0,0.00
2014-1-31,21,14,9,13,8,5,92,77,53,0.00,40.00,0,-999,0,0.00
2014-2-1,15,10,7,9,6,3,92,83,64,0.00,40.00,0,-999,0,0.00
2014-2-2,22,12,4,8,2,-2,86,66,35,0.00,40.00,0,-999,0,0.00
2014-2-3,26,14,9,11,7,4,92,73,46,0.00,40.00,0,-999,0,0.00
2014-2-4,11,6,1,9,1,-4,94,79,67,0.00,40.00,0,-999,0,0.00
2014-2-5,15,8,2,4,-2,-5,77,63,45,0.00,40.00,0,-999,0,0.00
2014-2-6,19,16,12,14,8,2,93,71,61,0.00,40.00,0,-999,0,0.00
2014-2-7,21,19,17,19,15,12,96,84,69,0.00,40.00,0,-999,0,0.00
2014-2-8,31,26,22,28,23,20,99,90,81,0.00,40.00,0,-999,0,0.00
2014-2-9,32,28,23,27,23,19,89,80,71,0.00,40.00,0,-999,0,0.00
2014-2-10,27,24,17,25,19,11,98,84,66,0.00,40.00,0,-999,0,0.00
2014-2-11,27,21,18,19,16,12,88,77,70,0.00,40.00,0,-999,0,0.00
2014-2-12,33,27,21,29,22,15,98,82,63,0.00,40.00,0,-999,0,0.00
2014-2-13,34,30,27,30,27,21,100,87,57,0.00,40.00,0,-999,0,0.00
2014-2-14,39,33,26,29,26,22,92,76,58,0.00,40.00,0,-999,0,0.00
2014-2-15,43,41,39,23,14,7,52,33,22,0.00,40.00,0,-999,0,0.00
2014-2-16,41,31,21,25,15,9,96,57,29,0.00,40.00,0,-999,0,0.00
2014-2-17,36,27,20,7,1,-9,55,33,14,0.00,40.00,0,-999,0,0.00
2014-2-18,36,31,24,9,5,1,44,33,22,0.00,40.00,0,-999,0,0.00
2014-2-19,32,20,8,23,11,5,94,71,35,0.00,40.00,0,-999,0,0.00
2014-2-20,21,13,7,12,6,3,91,72,54,0.00,40.00,0,-999,0,0.00
2014-2-21,24,20,16,14,10,0,93,66,34,0.00,40.00,0,-999,0,0.00
2014-2-22,26,23,20,16,12,9,82,62,54,0.00,40.00,0,-999,0,0.00
2014-2-23,37,30,23,14,11,6,68,47,32,0.00,40.00,0,-999,0,0.00
2014-2-24,39,34,31,20,13,3,59,41,26,0.00,40.00,0,-999,0,0.00
2014-2-25,42,34,31,26,20,13,79,57,38,0.00,40.00,0,-999,0,0.00
2014-2-26,41,34,30,26,24,18,84,69,45,0.00,40.00,0,-999,0,0.00
2014-2-27,34,29,25,30,25,18,100,87,51,0.00,40.00,0,-999,0,0.00
2014-2-28,33,27,24,22,18,15,81,70,47,0.00,40.00,0,-999,0,0.00
2014-3-1,29,26,23,23,21,19,98,84,68,0.00,40.00,0,-999,0,0.00
2014-3-2,34,28,23,26,21,18,98,79,52,0.00,40.00,0,-999,0,0.00
2014-3-3,40,32,27,25,21,16,94,63,49,0.00,40.00,0,-999,0,0.00
2014-3-4,33,28,24,28,22,18,96,77,53,0.00,40.00,0,-999,0,0.00
2014-3-5,39,30,23,22,16,5,91,62,27,0.00,40.00,0,-999,0,0.00
2014-3-6,42,34,27,29,18,10,100,56,31,0.00,40.00,0,-999,0,0.00
2014-3-7,31,24,22,24,19,15,93,83,56,0.00,40.00,0,-999,0,0.00
2014-3-8,39,28,21,23,16,-1,85,64,22,0.00,40.00,0,-999,0,0.00
2014-3-9,36,35,34,-15,-18,-20,10,8,7,0.00,40.00,0,-999,0,0.00
2014-3-13,40,32,25,4,-3,-12,33,22,13,0.00,40.00,0,-999,0,0.00
2014-3-14,40,31,24,25,7,-4,91,39,24,0.00,40.00,0,-999,0,0.00
2014-3-15,32,26,20,19,11,-4,76,53,24,0.00,40.00,0,-999,0,0.00
2014-3-16,42,34,27,17,11,-2,61,38,26,0.00,40.00,0,-999,0,0.00
2014-3-17,42,29,14,20,9,2,94,51,22,0.00,40.00,0,-999,0,0.00
2014-3-18,20,15,11,14,11,7,93,82,71,0.00,40.00,0,-999,0,0.00
2014-3-19,34,19,13,8,1,-11,71,49,14,0.00,40.00,0,-999,0,0.00
2014-3-20,40,34,30,7,1,-9,32,23,15,0.00,40.00,0,-999,0,0.00
2014-3-21,38,30,23,13,4,-11,55,33,19,0.00,40.00,0,-999,0,0.00
2014-3-22,34,26,20,20,10,-6,97,55,27,0.00,40.00,0,-999,0,0.00
2014-3-23,36,28,23,5,-7,-24,30,21,10,0.00,40.00,0,-999,0,0.00
2014-3-24,38,32,26,9,4,0,39,29,22,0.00,40.00,0,-999,0,0.00
2014-3-25,50,40,32,7,4,1,29,21,15,0.00,40.00,0,-999,0,0.00
2014-3-26,40,30,23,25,16,2,93,63,19,0.00,40.00,0,-999,0,0.00
2014-3-27,27,22,21,21,18,15,97,82,60,0.00,40.00,0,-999,0,0.00
2014-3-28,37,31,26,18,16,13,65,53,42,0.00,40.00,0,-999,0,0.00
2014-3-29,40,35,32,17,14,12,48,41,32,0.00,40.00,0,-999,0,0.00
2014-3-30,35,23,19,25,19,14,95,85,55,0.00,40.00,0,-999,0,0.00
2014-3-31,30,21,15,21,14,4,95,73,44,0.00,40.00,0,-999,0,0.00
2014-4-1,30,23,18,23,21,15,96,91,71,0.00,40.00,0,-999,0,0.00
2014-4-2,31,20,16,17,13,5,91,75,51,0.00,40.00,0,-999,0,0.00
2014-4-3,34,22,15,20,15,12,94,76,42,0.00,40.00,0,-999,0,0.00
2014-4-4,37,28,23,19,13,10,70,52,32,0.00,40.00,0,-999,0,0.00
2014-4-5,39,27,23,25,20,14,94,75,51,0.00,40.00,0,-999,0,0.00
2014-4-6,29,26,22,25,21,17,90,81,72,0.00,40.00,0,-999,0,0.00
2014-4-7,41,34,27,25,20,18,75,57,39,0.00,40.00,0,-999,0,0.00
2014-4-8,52,43,34,23,20,16,54,40,26,0.00,40.00,0,-999,0,0.00
2014-4-9,52,47,43,23,17,12,38,29,24,0.00,40.00,0,-999,0,0.00
2014-4-10,47,42,38,24,21,16,54,42,32,0.00,40.00,0,-999,0,0.00
2014-4-11,54,46,40,22,20,14,45,35,25,0.00,40.00,0,-999,0,0.00
2014-4-12,48,43,37,30,19,13,66,39,25,0.00,40.00,0,-999,0,0.00
2014-4-13,35,26,22,27,19,11,100,75,53,0.00,40.00,0,-999,0,0.00
2014-4-14,37,26,16,16,6,-10,90,46,14,0.00,40.00,0,-999,0,0.00
2014-4-15,47,36,30,21,5,-8,60,28,13,0.00,40.00,0,-999,0,0.00
2014-4-16,38,31,24,11,6,-1,47,35,21,0.00,40.00,0,-999,0,0.00
2014-4-17,51,40,29,20,15,8,49,36,27,0.00,40.00,0,-999,0,0.00